This demonstration page uses our WeatherBlox Daily Observations layout. Learn more.

Left ArrowRight Arrow

Hourly Observations for May 21, 2018

Temp ( °F °C ) Dew Point ( °F °C ) Humidity (%) Winds ( mph kmh ) Pressure ( in mb ) Visibility ( mi km ) Precip ( " mm )
12:15 am 00:15 Mostly Cloudy with Mist and Fog 47 8.6 47 8.6 100 100 Calm 30.15 1021 0.75 1.207005 0 0
12:35 am 00:35 Cloudy with Fog 47 8.6 47 8.6 100 100 Calm 30.15 1021 0.25 0.402335 0 0
12:55 am 00:55 Cloudy with Fog 46 7.8 46 7.8 100 100 Calm 30.15 1021 0.25 0.402335 0 0
1:15 am 01:15 Cloudy with Fog 46 7.6 46 7.6 100 100 Calm 30.12 1020 0.5 0.80467 0 0
1:35 am 01:35 Cloudy with Fog 46 7.8 46 7.8 100 100 Calm 30.12 1020 0.5 0.80467 0 0
1:55 am 01:55 Cloudy with Fog 45 7.2 45 7.2 100 100 Calm 30.12 1020 0.25 0.402335 0 0
2:15 am 02:15 Cloudy with Fog 45 7.4 45 7.4 100 100 Calm 30.12 1020 0.25 0.402335 0 0
2:35 am 02:35 Cloudy with Fog 46 7.5 46 7.5 100 100 Calm 30.12 1020 0.25 0.402335 0 0
2:55 am 02:55 Cloudy with Fog 46 7.5 46 7.5 100 100 SW 6 9 30.12 1020 0.5 0.80467 0 0
3:15 am 03:15 Cloudy with Fog 46 7.7 46 7.7 100 100 SW 5 7 30.12 1020 0.25 0.402335 0 0
3:35 am 03:35 Cloudy with Fog 46 8 46 8 100 100 SW 3 6 30.12 1020 5 8.0467 0 0
3:55 am 03:55 Cloudy with Fog 46 7.8 46 7.8 100 100 Calm 30.12 1020 0.25 0.402335 0 0
4:15 am 04:15 Cloudy with Fog 46 7.7 46 7.7 100 100 SW 3 6 30.12 1020 0.25 0.402335 0 0
4:35 am 04:35 Cloudy with Fog 46 7.5 46 7.5 100 100 Calm 30.12 1020 0.25 0.402335 0 0
4:55 am 04:55 Cloudy with Fog 46 7.5 46 7.5 100 100 Calm 30.12 1020 0.25 0.402335 0 0
5:15 am 05:15 Cloudy with Fog 45 7 45 7 100 100 Calm 30.12 1020 0.25 0.402335 0 0
5:35 am 05:35 Cloudy with Fog 44 6.6 44 6.6 100 100 Calm 30.15 1021 0.5 0.80467 0 0
5:55 am 05:55 Cloudy with Fog 43 6.3 43 6.3 100 100 WSW 3 6 30.15 1021 0.5 0.80467 0 0
6:15 am 06:15 Cloudy with Mist and Fog 45 7 45 7 100 100 Calm 30.12 1020 0.75 1.207005 0 0
6:35 am 06:35 Cloudy with Fog 45 7.1 45 7.1 100 100 Calm 30.12 1020 5 8.0467 0 0
6:55 am 06:55 Cloudy with Fog 45 7.2 45 7.2 100 100 Calm 30.12 1020 5 8.0467 0 0
7:15 am 07:15 Cloudy with Fog 45 7.2 45 7.2 100 100 Calm 30.12 1020 0.25 0.402335 0 0
7:35 am 07:35 Cloudy with Fog 46 7.7 46 7.7 100 100 Calm 30.12 1020 0.25 0.402335 0 0
7:55 am 07:55 Cloudy with Fog 47 8.1 47 8.1 100 100 Calm 30.12 1020 0.5 0.80467 0 0
8:15 am 08:15 Cloudy with Mist and Fog 48 8.8 48 8.8 100 100 SSW 5 7 30.12 1020 5 8.0467 0 0
8:35 am 08:35 Cloudy with Mist and Fog 49 9.4 49 9.4 100 100 Calm 30.12 1020 5 8.0467 0 0
8:55 am 08:55 Cloudy with Mist and Fog 51 10.4 51 10.4 100 100 SW 3 6 30.09 1019 5 8.0467 0 0
9:15 am 09:15 Cloudy with Mist and Fog 51 10.6 51 10.6 100 100 SW 6 9 30.09 1019 0.75 1.207005 0 0
9:35 am 09:35 Cloudy with Mist and Fog 51 10.6 51 10.6 100 100 SW 3 6 30.09 1019 1 1.60934 0 0
9:55 am 09:55 Cloudy with Mist and Fog 52 11 52 11 100 100 SSW 6 9 30.09 1019 2.5 4.02335 0 0
10:15 am 10:15 Cloudy 53 11.4 53 11.4 100 100 SSW 7 11 30.09 1019 7 11.26538 0 0
10:35 am 10:35 Cloudy 53 11.7 53 11.7 100 100 SSW 5 7 30.09 1019 10 16.0934 0 0
10:55 am 10:55 Mostly Cloudy 55 12.5 55 12.5 100 100 SSW 7 11 30.09 1019 10 16.0934 0 0
11:15 am 11:15 Mostly Cloudy 56 13.1 56 13.1 100 100 S 8 13 30.09 1019 7 11.26538 0 0
11:35 am 11:35 Mostly Cloudy 56 13.5 56 13.5 100 100 S 10 17 30.03 1017 7 11.26538 0 0
11:55 am 11:55 Partly Cloudy 57 13.9 57 13.9 100 100 S 12 19 30.03 1017 7 11.26538 0 0
12:15 pm 12:15 Sunny 60 15.6 60 15.6 100 100 S 9 15 30.03 1017 7 11.26538 0 0
12:35 pm 12:35 Sunny 63 17.2 57 13.7 80 80 S 13 20 30 1016 7 11.26538 0 0
12:55 pm 12:55 Hazy 65 18.2 56 13.3 73 73 S 14 22 30 1016 5 8.0467 0 0
1:15 pm 13:15 Hazy 67 19.3 56 13.2 68 68 S 14 22 30 1016 5 8.0467 0 0
1:35 pm 13:35 Sunny 67 19.5 56 13.1 67 67 S 16 26 29.97 1015 10 16.0934 0 0
1:55 pm 13:55 Sunny 68 20.1 56 13.3 65 65 S 10 17 29.94 1014 10 16.0934 0 0
2:15 pm 14:15 Sunny 69 20.5 57 13.7 65 65 S 16 26 29.94 1014 10 16.0934 0 0
2:35 pm 14:35 Partly Cloudy 70 20.9 57 14.1 65 65 S 13 20 29.94 1014 10 16.0934 0 0
2:55 pm 14:55 Sunny 71 21.5 58 14.4 64 64 S 14 22 29.91 1013 7 11.26538 0 0
3:15 pm 15:15 Sunny 72 22 59 14.8 64 64 SSE 13 20 29.91 1013 10 16.0934 0 0
3:35 pm 15:35 Sunny 72 22.3 58 14.4 61 61 S 14 22 29.91 1013 10 16.0934 0 0
3:55 pm 15:55 Partly Cloudy 73 22.8 58 14.7 60 60 S 13 20 29.91 1013 10 16.0934 0 0
4:15 pm 16:15 Partly Cloudy 73 23 59 14.8 60 60 S 13 20 29.85 1011 10 16.0934 0 0
4:35 pm 16:35 Partly Cloudy 75 23.9 59 14.9 57 57 S 12 19 29.85 1011 10 16.0934 0 0
4:55 pm 16:55 Mostly Cloudy 76 24.5 59 14.8 55 55 S 12 19 29.85 1011 10 16.0934 0 0
5:15 pm 17:15 Mostly Cloudy 75 24 59 14.8 57 57 S 14 22 29.85 1011 10 16.0934 0 0
5:35 pm 17:35 Partly Cloudy 75 23.9 59 15 58 58 S 12 19 29.83 1010 10 16.0934 0 0
5:55 pm 17:55 Sunny 75 23.8 59 15 58 58 S 12 19 29.83 1010 10 16.0934 0 0
6:15 pm 18:15 Sunny 75 23.7 60 15.5 60 60 S 13 20 29.83 1010 10 16.0934 0 0
6:35 pm 18:35 Sunny 75 24 60 15.4 59 59 SSE 14 22 29.83 1010 10 16.0934 0 0
6:55 pm 18:55 Sunny 75 23.8 61 15.9 61 61 S 13 20 29.83 1010 10 16.0934 0 0
7:15 pm 19:15 Sunny 75 23.7 60 15.8 61 61 SSE 12 19 29.83 1010 10 16.0934 0 0
7:35 pm 19:35 Sunny 74 23.3 61 16.1 64 64 SSE 9 15 29.83 1010 10 16.0934 0 0
7:55 pm 19:55 Sunny 73 22.9 62 16.5 67 67 SSE 9 15 29.83 1010 10 16.0934 0 0
8:15 pm 20:15 Sunny 72 22 62 16.6 72 72 SE 8 13 29.85 1011 10 16.0934 0 0
8:35 pm 20:35 Sunny 69 20.7 62 16.5 77 77 SE 7 11 29.85 1011 10 16.0934 0 0
8:55 pm 20:55 Clear 67 19.7 62 16.5 82 82 ESE 7 11 29.85 1011 10 16.0934 0 0
9:15 pm 21:15 Clear 66 19.1 62 16.5 85 85 ESE 9 15 29.85 1011 10 16.0934 0 0
9:35 pm 21:35 Clear 66 18.8 61 16.2 85 85 ESE 10 17 29.88 1012 10 16.0934 0 0
9:55 pm 21:55 Clear 65 18.3 61 16 87 87 ESE 9 15 29.88 1012 10 16.0934 0 0
10:15 pm 22:15 Clear 64 18 60 15.7 87 87 ESE 8 13 29.91 1013 10 16.0934 0 0
10:35 pm 22:35 Clear 64 17.8 60 15.7 88 88 SE 10 17 29.91 1013 10 16.0934 0 0
10:55 pm 22:55 Clear 64 17.5 60 15.5 88 88 ESE 10 17 29.91 1013 10 16.0934 0 0
11:15 pm 23:15 Clear 63 17.2 60 15.3 89 89 SE 12 19 29.91 1013 10 16.0934 0 0
11:35 pm 23:35 Partly Cloudy 64 17.6 59 15.2 86 86 SE 14 22 29.88 1012 10 16.0934 0 0
11:55 pm 23:55 Mostly Cloudy 63 17.4 59 15 86 86 SE 12 19 29.88 1012 10 16.0934 0 0

Powered by AerisWeather